• în Republica Moldova
  • Lista ţărilor
  • Pe 7 zile
  • Temperatura apei
  • Hartă satelitară
  • Meteo pe hartă
  • Widget-uri
  • user-avatar
    Intrare

    Meteo pe oră la Sydney

    Astăzi, 23 Septembrie, Duminică

    Timp Temperatura Precipitaţii Vânt Presiune Umiditate
    00:00 +14°C° 0 mm 3 m/s 767 mmHg 69%
    01:00 +13°C° 0 mm 4 m/s 767 mmHg 72%
    02:00 +13°C° 0 mm 4 m/s 767 mmHg 75%
    03:00 +12°C° 0 mm 5 m/s 767 mmHg 78%
    04:00 +12°C° 0 mm 5 m/s 767 mmHg 82%
    05:00 +12°C° 0 mm 5 m/s 767 mmHg 80%
    06:00 +13°C° 0 mm 5 m/s 767 mmHg 78%
    07:00 +13°C° 0 mm 5 m/s 768 mmHg 76%
    08:00 +16°C° 0 mm 5 m/s 768 mmHg 68%
    09:00 +19°C° 0 mm 5 m/s 768 mmHg 60%
    10:00 +22°C° 0 mm 4 m/s 768 mmHg 50%
    11:00 +22°C° 0 mm 5 m/s 767 mmHg 51%
    12:00 +22°C° 0 mm 5 m/s 767 mmHg 52%
    13:00 +22°C° 0 mm 6 m/s 767 mmHg 53%
    14:00 +21°C° 0 mm 6 m/s 767 mmHg 56%
    15:00 +20°C° 0 mm 6 m/s 767 mmHg 59%
    16:00 +20°C° 0 mm 5 m/s 766 mmHg 61%
    17:00 +19°C° 0 mm 5 m/s 767 mmHg 67%
    18:00 +16°C° 0 mm 6 m/s 767 mmHg 72%
    19:00 +15°C° 0 mm 6 m/s 768 mmHg 78%
    20:00 +15°C° 0.4 mm 6 m/s 769 mmHg 80%
    21:00 +14°C° 0.4 mm 7 m/s 769 mmHg 83%
    22:00 +12°C° 0.4 mm 8 m/s 770 mmHg 86%
    23:00 +12°C° 0.3 mm 7 m/s 770 mmHg 85%

    Mâine, 24 Septembrie, Luni

    Timp Temperatura Precipitaţii Vânt Presiune Umiditate
    00:00 +11°C° 0.3 mm 7 m/s 770 mmHg 85%
    01:00 +11°C° 0.3 mm 7 m/s 770 mmHg 84%
    02:00 +10°C° 0.1 mm 6 m/s 770 mmHg 85%
    03:00 +10°C° 0.1 mm 6 m/s 770 mmHg 85%
    04:00 +10°C° 0.1 mm 5 m/s 770 mmHg 86%
    05:00 +10°C° 0 mm 5 m/s 771 mmHg 84%
    06:00 +10°C° 0 mm 5 m/s 771 mmHg 83%
    07:00 +10°C° 0 mm 5 m/s 771 mmHg 82%
    08:00 +12°C° 0.1 mm 5 m/s 771 mmHg 77%
    09:00 +13°C° 0.1 mm 5 m/s 771 mmHg 72%
    10:00 +14°C° 0.1 mm 5 m/s 772 mmHg 68%
    11:00 +14°C° 0.1 mm 5 m/s 771 mmHg 65%
    12:00 +14°C° 0.1 mm 5 m/s 771 mmHg 61%
    13:00 +15°C° 0.1 mm 5 m/s 771 mmHg 58%
    14:00 +15°C° 0.1 mm 5 m/s 771 mmHg 60%
    15:00 +14°C° 0.1 mm 5 m/s 771 mmHg 61%
    16:00 +14°C° 0.1 mm 5 m/s 771 mmHg 62%
    17:00 +13°C° 0 mm 4 m/s 771 mmHg 65%
    18:00 +12°C° 0 mm 4 m/s 771 mmHg 68%
    19:00 +12°C° 0 mm 4 m/s 772 mmHg 71%
    20:00 +11°C° 0 mm 3 m/s 772 mmHg 72%
    21:00 +11°C° 0 mm 3 m/s 772 mmHg 73%
    22:00 +10°C° 0 mm 3 m/s 772 mmHg 74%
    23:00 +10°C° 0 mm 3 m/s 772 mmHg 75%

    Poimâine, 25 Septembrie, Marţi

    Timp Temperatura Precipitaţii Vânt Presiune Umiditate
    00:00 +10°C° 0 mm 2 m/s 771 mmHg 76%
    01:00 +10°C° 0 mm 2 m/s 771 mmHg 76%
    02:00 +9°C° 0 mm 2 m/s 771 mmHg 77%
    03:00 +9°C° 0 mm 2 m/s 771 mmHg 79%
    04:00 +9°C° 0 mm 2 m/s 770 mmHg 80%
    05:00 +9°C° 0 mm 2 m/s 771 mmHg 79%
    06:00 +9°C° 0 mm 2 m/s 771 mmHg 77%
    07:00 +10°C° 0 mm 2 m/s 771 mmHg 76%
    08:00 +13°C° 0 mm 2 m/s 771 mmHg 66%
    09:00 +15°C° 0 mm 2 m/s 771 mmHg 56%
    10:00 +18°C° 0 mm 1 m/s 771 mmHg 47%
    11:00 +18°C° 0 mm 2 m/s 770 mmHg 45%
    12:00 +18°C° 0 mm 2 m/s 769 mmHg 43%
    13:00 +18°C° 0 mm 2 m/s 769 mmHg 41%
    14:00 +18°C° 0 mm 2 m/s 768 mmHg 41%
    15:00 +18°C° 0 mm 3 m/s 768 mmHg 42%
    16:00 +18°C° 0 mm 3 m/s 767 mmHg 42%
    17:00 +16°C° 0 mm 3 m/s 767 mmHg 49%
    18:00 +13°C° 0 mm 3 m/s 768 mmHg 57%
    19:00 +12°C° 0 mm 3 m/s 768 mmHg 64%
    20:00 +11°C° 0 mm 3 m/s 768 mmHg 67%
    21:00 +12°C° 0 mm 2 m/s 769 mmHg 70%
    22:00 +10°C° 0 mm 2 m/s 769 mmHg 73%
    23:00 +10°C° 0 mm 2 m/s 769 mmHg 75%

    26 Septembrie, Miercuri

    Timp Temperatura Precipitaţii Vânt Presiune Umiditate
    00:00 +10°C° 0 mm 1 m/s 768 mmHg 78%
    01:00 +9°C° 0 mm 1 m/s 768 mmHg 81%
    02:00 +9°C° 0 mm 1 m/s 768 mmHg 81%
    03:00 +9°C° 0 mm 1 m/s 768 mmHg 82%
    04:00 +8°C° 0 mm 2 m/s 767 mmHg 82%
    05:00 +9°C° 0 mm 2 m/s 768 mmHg 80%
    06:00 +10°C° 0 mm 2 m/s 768 mmHg 78%
    07:00 +10°C° 0 mm 2 m/s 768 mmHg 76%
    08:00 +14°C° 0.1 mm 2 m/s 768 mmHg 67%
    09:00 +16°C° 0.1 mm 2 m/s 768 mmHg 58%
    10:00 +19°C° 0.1 mm 3 m/s 768 mmHg 49%
    11:00 +19°C° 0.1 mm 3 m/s 767 mmHg 49%
    12:00 +19°C° 0.1 mm 3 m/s 767 mmHg 48%
    13:00 +19°C° 0.1 mm 3 m/s 766 mmHg 48%
    14:00 +19°C° 0 mm 3 m/s 766 mmHg 50%
    15:00 +19°C° 0 mm 3 m/s 766 mmHg 51%
    16:00 +18°C° 0 mm 4 m/s 765 mmHg 53%
    17:00 +17°C° 0 mm 3 m/s 766 mmHg 60%
    18:00 +14°C° 0 mm 3 m/s 766 mmHg 68%
    19:00 +13°C° 0 mm 3 m/s 767 mmHg 75%
    20:00 +12°C° 0 mm 3 m/s 767 mmHg 77%
    21:00 +12°C° 0 mm 3 m/s 767 mmHg 80%
    22:00 +11°C° 0 mm 3 m/s 767 mmHg 82%
    23:00 +11°C° 0 mm 3 m/s 767 mmHg 85%

    27 Septembrie, Joi

    Timp Temperatura Precipitaţii Vânt Presiune Umiditate
    00:00 +10°C° 0 mm 3 m/s 766 mmHg 87%
    01:00 +10°C° 0 mm 3 m/s 766 mmHg 89%
    02:00 +9°C° 0 mm 3 m/s 765 mmHg 90%
    03:00 +9°C° 0 mm 3 m/s 765 mmHg 91%
    04:00 +9°C° 0 mm 3 m/s 764 mmHg 92%
    05:00 +10°C° 0 mm 4 m/s 764 mmHg 88%
    06:00 +11°C° 0 mm 4 m/s 764 mmHg 84%
    07:00 +11°C° 0 mm 4 m/s 765 mmHg 80%
    08:00 +14°C° 0 mm 4 m/s 764 mmHg 68%
    09:00 +18°C° 0 mm 4 m/s 764 mmHg 56%
    10:00 +21°C° 0 mm 5 m/s 763 mmHg 44%
    11:00 +23°C° 0 mm 5 m/s 762 mmHg 39%
    12:00 +26°C° 0 mm 5 m/s 762 mmHg 34%
    13:00 +28°C° 0 mm 5 m/s 761 mmHg 29%
    14:00 +28°C° 0 mm 5 m/s 760 mmHg 32%
    15:00 +27°C° 0 mm 5 m/s 760 mmHg 35%
    16:00 +26°C° 0 mm 6 m/s 759 mmHg 38%
    17:00 +23°C° 0.2 mm 6 m/s 760 mmHg 47%
    18:00 +20°C° 0.2 mm 6 m/s 760 mmHg 57%
    19:00 +17°C° 0.2 mm 6 m/s 760 mmHg 66%
    20:00 +17°C° 0.1 mm 5 m/s 760 mmHg 70%
    21:00 +17°C° 0.1 mm 4 m/s 760 mmHg 73%
    22:00 +17°C° 0.1 mm 3 m/s 760 mmHg 77%
    23:00 +15°C° 0.3 mm 4 m/s 760 mmHg 80%

    28 Septembrie, Vineri

    Timp Temperatura Precipitaţii Vânt Presiune Umiditate
    00:00 +15°C° 0.3 mm 4 m/s 760 mmHg 83%
    01:00 +14°C° 0.3 mm 4 m/s 759 mmHg 86%
    02:00 +14°C° 0.3 mm 4 m/s 759 mmHg 85%
    03:00 +14°C° 0.3 mm 4 m/s 759 mmHg 85%
    04:00 +15°C° 0.3 mm 5 m/s 759 mmHg 84%
    05:00 +15°C° 0 mm 5 m/s 760 mmHg 82%
    06:00 +16°C° 0 mm 5 m/s 760 mmHg 79%
    07:00 +16°C° 0 mm 5 m/s 760 mmHg 77%
    08:00 +20°C° 0 mm 5 m/s 760 mmHg 63%
    09:00 +25°C° 0 mm 4 m/s 760 mmHg 48%
    10:00 +28°C° 0 mm 4 m/s 760 mmHg 34%
    11:00 +29°C° 0 mm 4 m/s 759 mmHg 31%
    12:00 +30°C° 0 mm 5 m/s 758 mmHg 28%
    13:00 +33°C° 0 mm 5 m/s 757 mmHg 24%
    14:00 +32°C° 0 mm 5 m/s 757 mmHg 26%
    15:00 +30°C° 0 mm 5 m/s 756 mmHg 27%
    16:00 +30°C° 0 mm 6 m/s 756 mmHg 28%
    17:00 +27°C° 0.8 mm 5 m/s 756 mmHg 44%
    18:00 +23°C° 0.8 mm 5 m/s 757 mmHg 59%
    19:00 +20°C° 0.8 mm 5 m/s 757 mmHg 75%
    20:00 +19°C° 0.2 mm 4 m/s 757 mmHg 78%
    21:00 +18°C° 0.2 mm 4 m/s 757 mmHg 81%
    22:00 +18°C° 0.2 mm 4 m/s 757 mmHg 84%
    23:00 +17°C° 0 mm 4 m/s 757 mmHg 85%
    Arată mai mult